| time (UTC) | temp F | wind direction | speed MPH | gust MPH | rain 1hr in | rain 24hr in | rain mn in | humidity % | barometer mb |
| 20260504234103 | 69 | 337 | 15.0 | 25.0 | 0.00 | 0.00 | 0.00 | 19 | 1003.9 |
| 20260504233104 | 70 | 341 | 15.0 | 23.0 | 0.00 | 0.00 | 0.00 | 19 | 1003.6 |
| 20260504225603 | 71 | 347 | 19.0 | 29.0 | 0.00 | 0.00 | 0.00 | 17 | 1003.0 |
| 20260504224103 | 72 | 333 | 17.0 | 26.0 | 0.00 | 0.00 | 0.00 | 17 | 1002.7 |
| 20260504223103 | 73 | 337 | 17.0 | 24.0 | 0.00 | 0.00 | 0.00 | 16 | 1002.6 |
| 20260504222103 | 73 | 337 | 18.0 | 27.0 | 0.00 | 0.00 | 0.00 | 16 | 1002.5 |
| 20260504221603 | 74 | 337 | 16.0 | 24.0 | 0.00 | 0.00 | 0.00 | 16 | 1002.3 |
| 20260504221103 | 74 | 339 | 16.0 | 24.0 | 0.00 | 0.00 | 0.00 | 16 | 1002.1 |
| 20260504215103 | 75 | 340 | 15.0 | 22.0 | 0.00 | 0.00 | 0.00 | 16 | 1002.2 |
| 20260504214603 | 76 | 339 | 13.0 | 22.0 | 0.00 | 0.00 | 0.00 | 16 | 1002.1 |
| 20260504214103 | 76 | 339 | 12.0 | 22.0 | 0.00 | 0.00 | 0.00 | 17 | 1002.0 |
| 20260504212603 | 76 | 332 | 13.0 | 19.0 | 0.00 | 0.00 | 0.00 | 16 | 1001.7 |
| 20260504202103 | 77 | 324 | 12.0 | 20.0 | 0.00 | 0.00 | 0.00 | 19 | 1001.4 |
| 20260504201603 | 77 | 335 | 14.0 | 24.0 | 0.00 | 0.00 | 0.00 | 20 | 1001.4 |
| 20260504200104 | 77 | 341 | 11.0 | 19.0 | 0.00 | 0.00 | 0.00 | 22 | 1001.3 |
| 20260504193603 | 77 | 330 | 15.0 | 22.0 | 0.00 | 0.00 | 0.00 | 23 | 1001.2 |
| 20260504192602 | 78 | 320 | 15.0 | 24.0 | 0.00 | 0.00 | 0.00 | 23 | 1001.0 |
| 20260504190104 | 79 | 319 | 12.0 | 21.0 | 0.00 | 0.00 | 0.00 | 20 | 1000.8 |
| 20260504185603 | 79 | 310 | 13.0 | 21.0 | 0.00 | 0.00 | 0.00 | 18 | 1000.8 |
| 20260504183602 | 79 | 323 | 15.0 | 25.0 | 0.00 | 0.00 | 0.00 | 19 | 1000.8 |
| 20260504182603 | 79 | 312 | 14.0 | 26.0 | 0.00 | 0.00 | 0.00 | 16 | 1000.7 |
| 20260504181602 | 79 | 318 | 15.0 | 23.0 | 0.00 | 0.00 | 0.00 | 18 | 1000.7 |
| 20260504181103 | 79 | 322 | 13.0 | 23.0 | 0.00 | 0.00 | 0.00 | 18 | 1000.7 |
| 20260504180103 | 79 | 298 | 11.0 | 19.0 | 0.00 | 0.00 | 0.00 | 18 | 1000.8 |
| 20260504174104 | 79 | 300 | 10.0 | 21.0 | 0.00 | 0.00 | 0.00 | 17 | 1000.8 |
| 20260504171104 | 77 | 297 | 14.0 | 21.0 | 0.00 | 0.00 | 0.00 | 19 | 1000.9 |
| 20260504170603 | 77 | 287 | 13.0 | 25.0 | 0.00 | 0.00 | 0.00 | 19 | 1000.9 |
| 20260504141103 | 62 | 272 | 5.0 | 7.0 | 0.00 | 0.00 | 0.00 | 38 | 1001.6 |
| 20260504140103 | 61 | 287 | 5.0 | 8.0 | 0.00 | 0.00 | 0.00 | 41 | 1001.5 |
| 20260504130602 | 56 | 0 | 0.0 | 0.0 | 0.00 | 0.00 | 0.00 | 50 | 1001.4 |
| 20260504130103 | 56 | 0 | 0.0 | 0.0 | 0.00 | 0.00 | 0.00 | 52 | 1001.4 |
| 20260504110603 | 51 | 0 | 0.0 | 0.0 | 0.00 | 0.00 | 0.00 | 49 | 1001.3 |
| 20260504090104 | 53 | 117 | 0.0 | 1.0 | 0.00 | 0.00 | 0.00 | 47 | 1002.2 |
| 20260504081104 | 55 | 153 | 1.0 | 2.0 | 0.00 | 0.00 | 0.00 | 44 | 1002.8 |
| 20260504050603 | 62 | 214 | 0.0 | 1.0 | 0.00 | 0.00 | 0.00 | 30 | 1005.6 |
| 20260504050105 | 62 | 214 | 0.0 | 1.0 | 0.00 | 0.00 | 0.00 | 30 | 1005.5 |
| 20260504044103 | 64 | 0 | 0.0 | 0.0 | 0.00 | 0.00 | 0.00 | 28 | 1005.6 |
| 20260504043603 | 64 | 0 | 0.0 | 0.0 | 0.00 | 0.00 | 0.00 | 28 | 1005.6 |
| 20260504040103 | 63 | 214 | 1.0 | 2.0 | 0.00 | 0.00 | 0.00 | 30 | 1006.1 |
| 20260504035603 | 63 | 214 | 1.0 | 2.0 | 0.00 | 0.00 | 0.00 | 30 | 1006.2 |
| 20260504035103 | 63 | 215 | 0.0 | 2.0 | 0.00 | 0.00 | 0.00 | 30 | 1006.3 |
| 20260504033603 | 63 | 215 | 1.0 | 2.0 | 0.00 | 0.00 | 0.00 | 30 | 1006.4 |
| 20260504030603 | 63 | 253 | 2.0 | 5.0 | 0.00 | 0.00 | 0.00 | 30 | 1006.7 |
| 20260504014603 | 68 | 0 | 0.0 | 0.0 | 0.00 | 0.00 | 0.00 | 22 | 1006.9 |
| 20260504011603 | 70 | 0 | 0.0 | 0.0 | 0.00 | 0.00 | 0.00 | 21 | 1006.9 |
| 20260504011103 | 71 | 0 | 0.0 | 0.0 | 0.00 | 0.00 | 0.00 | 20 | 1007.0 |
| 20260504004603 | 72 | 288 | 2.0 | 4.0 | 0.00 | 0.00 | 0.00 | 18 | 1007.1 |
| 20260504002603 | 73 | 294 | 4.0 | 8.0 | 0.00 | 0.00 | 0.00 | 17 | 1007.3 |